Flag for United Kingdom Weather past 2 weeks in Preston, England, United Kingdom

Now
43 °F

Passing clouds.


Feels Like: 37 °F
Forecast: 36 / 55 °F
Wind: 10 mph from Northeast

Location: Blackpool Airport

Current Time: Apr 18, 2015 at 8:53:11 AM

Latest Report: Apr 18, 2015 at 8:20 AM


Visibility: N/A

Pressure: 30.45 "Hg

Humidity: 81%

Dew point: 37 °F

Location of PrestonLocation

Historic Weather in Preston — Graph

°F

Preston temperature yesterday

Maximum temperature yesterday: 59 °F (at 2:50 PM)
Minimum temperature yesterday: 45 °F (at 6:20 AM)
Average temperature yesterday: 52 °F

Past Weeks' High & Low Weather Summary

 TemperatureHumidityPressure
High66 °F (Apr 10, 1:50 PM)100% (Apr 3, 8:20 AM)30.66 "Hg (Apr 3, 8:20 AM)
Low36 °F (Apr 8, 6:20 AM)40% (Apr 10, 1:50 PM)29.80 "Hg (Apr 10, 7:50 PM)
Average48 °F80%30.23 "Hg
* Reported Apr 3 7:20 AM — Apr 18 7:20 AM, Preston, Weather by CustomWeather, © 2015

Note: Actual official high and low records may vary slightly from our data, if they occured in-between our weather recording intervals... More about our weather records

Advertising

Preston weather history for previous 24 hours

 ConditionsComfort  
Time TempWeatherWind HumidityBarometerVisibility
7:20 AM
Sat, Apr 18
39 °FSunny.6 mph87%30.45 "Hg10 mi
6:50 AM37 °FClear.6 mph93%30.45 "Hg10 mi
6:20 AM37 °FClear.7 mph93%30.45 "Hg10 mi
8:50 PM
Fri, Apr 17
48 °FSunny.8 mph66%30.30 "Hg10 mi
8:20 PM52 °FSunny.17 mph58%30.30 "Hg10 mi
7:50 PM52 °FSunny.17 mph58%30.30 "Hg10 mi
7:20 PM54 °FSunny.18 mph58%30.27 "Hg10 mi
6:50 PM54 °FSunny.18 mph58%30.27 "Hg10 mi
6:20 PM55 °FSunny.18 mph55%30.24 "Hg10 mi
5:50 PM55 °FSunny.13 mph47%30.24 "Hg10 mi
5:20 PM57 °FPassing clouds.16 mph48%30.24 "HgN/A
4:50 PM59 °FSunny.N/A45%30.24 "Hg10 mi
4:20 PM57 °FSunny.13 mph44%30.21 "Hg10 mi
3:50 PM57 °FSunny.15 mph41%30.21 "Hg10 mi
3:20 PM55 °FSunny.15 mph44%30.21 "Hg10 mi
2:50 PM59 °FSunny.15 mph42%30.21 "Hg10 mi
2:20 PM55 °FPassing clouds.15 mph47%30.21 "HgN/A
1:50 PM55 °FSunny.13 mph51%30.21 "Hg10 mi
12:50 PM54 °FPassing clouds.12 mph51%30.18 "HgN/A
12:20 PM54 °FSunny.12 mph51%30.18 "Hg10 mi
11:50 AM54 °FSunny.14 mph54%30.18 "Hg10 mi
11:20 AM52 °FSunny.13 mph54%30.18 "Hg10 mi
10:50 AM52 °FSunny.15 mph54%30.15 "Hg10 mi
10:20 AM50 °FSunny.14 mph58%30.15 "Hg10 mi
9:50 AM50 °FSunny.13 mph67%30.15 "Hg10 mi
9:20 AM48 °FSunny.13 mph66%30.12 "Hg10 mi
8:50 AM48 °FSunny.13 mph66%30.12 "Hg10 mi
8:20 AM48 °FPassing clouds.14 mph71%30.09 "HgN/A
Weather by CustomWeather, © 2015

See weather overviewHow to use our weather pages